This is the latest recevied weather packets stored in our database for station/object BV5AB-13. If no packets are shown the sender has not sent any weather packets the latest 10 day(s).
| Time | Temp. | Humidity | Pressure | Rain* | Wind** | Luminosity | Snow |
|---|---|---|---|---|---|---|---|
| 1777822623 | 26.67° C | 83% | 1002.6 hPa | 0 mm | - | - | - |
| 1777822023 | 26.67° C | 84% | 1002.7 hPa | 0 mm | - | - | - |
| 1777821423 | 26.67° C | 84% | 1002.7 hPa | 0 mm | - | - | - |
| 1777820824 | 26.67° C | 84% | 1002.7 hPa | 0 mm | - | - | - |
| 1777820224 | 26.67° C | 83% | 1002.4 hPa | 0 mm | - | - | - |
| 1777819624 | 26.67° C | 83% | 1002.4 hPa | 0 mm | - | - | - |
| 1777819025 | 26.67° C | 82% | 1002.4 hPa | 0 mm | - | - | - |
| 1777818424 | 27.22° C | 80% | 1002.3 hPa | 0 mm | - | - | - |
| 1777817823 | 27.78° C | 77% | 1002.1 hPa | 0 mm | - | - | - |
| 1777817223 | 27.78° C | 77% | 1001.8 hPa | 0 mm | - | - | - |
| 1777816624 | 27.78° C | 79% | 1001.4 hPa | 0 mm | - | - | - |
| 1777816024 | 27.78° C | 77% | 1001.3 hPa | 0 mm | - | - | - |
| 1777815424 | 27.78° C | 77% | 1001.3 hPa | 0 mm | - | - | - |
| 1777814825 | 27.78° C | 78% | 1001.4 hPa | 0 mm | - | - | - |
| 1777814224 | 27.78° C | 77% | 1001.4 hPa | 0 mm | - | - | - |
| 1777813624 | 28.33° C | 77% | 1001.3 hPa | 0 mm | - | - | - |
| 1777813024 | 27.78° C | 77% | 1001.3 hPa | 0 mm | - | - | - |
| 1777812424 | 27.78° C | 76% | 1001.4 hPa | 0 mm | - | - | - |
| 1777811824 | 28.33° C | 75% | 1001.3 hPa | 0 mm | - | - | - |
| 1777811224 | 28.33° C | 74% | 1001.4 hPa | 0 mm | - | - | - |
| 1777810624 | 28.33° C | 76% | 1001.5 hPa | 0 mm | - | - | - |
| 1777810024 | 27.78° C | 77% | 1001.4 hPa | 0 mm | - | - | - |
| 1777809427 | 27.78° C | 76% | 1001.4 hPa | 0 mm | - | - | - |
| 1777808824 | 28.33° C | 76% | 1001.2 hPa | 0 mm | - | - | - |
| 1777808223 | 28.33° C | 78% | 1001.2 hPa | 0 mm | - | - | - |
* Rain latest hour (hover to see other rain measurements)
** Current wind speed in m/s (hover to see current wind gust speed)